Weather History for KMKO - September, 2012

Change the Weather History Date:

Tuesday, September 18, 2012

  Actual Average Record
Temperature  
Mean Temperature 65 °F -  
Max Temperature 75 °F 81 °F 97 °F (2005)
Min Temperature 55 °F 58 °F 52 °F (2000)
Growing Degree Days 15 (Base 50)    
Moisture  
Dew Point 52 °F    
Average Humidity 65    
Maximum Humidity 94    
Minimum Humidity 32    
Precipitation  
Precipitation 0.07 in - - ()
Sea Level Pressure  
Sea Level Pressure 30.04 in    
Wind  
Wind Speed 11 mph (North)    
Max Wind Speed 17 mph    
Max Gust Speed 26 mph    
Visibility 10 miles    
Events Thunderstorm    
Averages and records for this station are not official NWS values.
T = Trace of Precipitation, MM = Missing Value Source: NWS Daily Summary

Daily Weather History Graph

Daily Weather History Graph

Search for Another Location

Airport or City:

Trip Planner

Search our weather history database for the weather conditions in past years. The results will help you decide how hot, cold, wet, or windy it might be!

Date:

Astronomy

Sep. 18, 2012 Rise Set
Actual Time 7:06 AM CDT 7:23 PM CDT
Civil Twilight 6:41 AM CDT 7:48 PM CDT
Nautical Twilight 6:11 AM CDT 8:18 PM CDT
Astronomical Twilight 5:40 AM CDT 8:48 PM CDT
Moon 9:59 AM CDT (9/18) 8:56 PM CDT (9/18)
Length of Visible Light 13h 07m
Length of Day
12h 16m
Waxing Crescent, 9% of the Moon is Illuminated
Sep 18
Waxing Crescent
Sep 22
First Quarter
Sep 29
Full
Oct 8
Last Quarter
Oct 15
New

Hourly Weather History & Observations

Time (CDT) Temp. Dew Point Humidity Pressure Visibility Wind Dir Wind Speed Gust Speed Precip Events Conditions
12:53 AM 69.1 °F 64.9 °F 87% 29.90 in 10.0 mi NW 15.0 mph - N/A   Mostly Cloudy
1:27 AM 66.2 °F 64.4 °F 94% 29.94 in 10.0 mi North 17.3 mph 26.5 mph N/A   Mostly Cloudy
1:53 AM 66.9 °F 63.0 °F 87% 29.93 in 10.0 mi North 16.1 mph 24.2 mph N/A   Overcast
2:53 AM 64.0 °F 61.0 °F 90% 29.94 in 10.0 mi North 15.0 mph - 0.00 in   Mostly Cloudy
3:03 AM 64.4 °F 60.8 °F 88% 29.96 in 10.0 mi North 12.7 mph - N/A   Mostly Cloudy
3:53 AM 64.0 °F 57.9 °F 80% 29.96 in 10.0 mi North 11.5 mph - N/A   Overcast
4:09 AM 62.6 °F 57.2 °F 82% 29.97 in 10.0 mi North 12.7 mph - N/A Thunderstorm Mostly Cloudy
4:53 AM 60.1 °F 57.9 °F 93% 29.99 in 10.0 mi North 10.4 mph - 0.07 in   Partly Cloudy
5:53 AM 57.9 °F 55.9 °F 93% 30.01 in 10.0 mi North 12.7 mph - N/A   Clear
6:53 AM 55.9 °F 54.0 °F 93% 30.04 in 10.0 mi NNW 5.8 mph - N/A   Clear
7:53 AM 55.9 °F 53.1 °F 90% 30.05 in 10.0 mi North 5.8 mph - N/A   Clear
8:53 AM 61.0 °F 51.1 °F 70% 30.08 in 10.0 mi North 6.9 mph - N/A   Clear
9:53 AM 64.9 °F 46.0 °F 50% 30.11 in 10.0 mi NE 6.9 mph - N/A   Clear
10:53 AM 68.0 °F 44.1 °F 42% 30.12 in 10.0 mi NNE 10.4 mph - N/A   Clear
11:53 AM 70.0 °F 43.0 °F 38% 30.12 in 10.0 mi North 13.8 mph - N/A   Clear
12:53 PM 72.0 °F 44.1 °F 37% 30.12 in 10.0 mi North 16.1 mph 20.7 mph N/A   Clear
1:53 PM 73.9 °F 44.1 °F 34% 30.11 in 10.0 mi NNE 10.4 mph 18.4 mph N/A   Clear
2:53 PM 73.9 °F 42.1 °F 32% 30.09 in 10.0 mi NNE 11.5 mph 19.6 mph N/A   Clear
3:53 PM 75.0 °F 43.0 °F 32% 30.08 in 10.0 mi NNE 10.4 mph - N/A   Clear
4:53 PM 75.0 °F 44.1 °F 33% 30.06 in 10.0 mi NNE 9.2 mph - N/A   Clear
5:53 PM 73.9 °F 45.0 °F 35% 30.06 in 10.0 mi North 4.6 mph - N/A   Clear
6:53 PM 71.1 °F 48.0 °F 44% 30.06 in 10.0 mi NNE 3.5 mph - N/A   Clear
7:53 PM 66.9 °F 46.9 °F 49% 30.06 in 10.0 mi North 3.5 mph - N/A   Clear
8:53 PM 64.0 °F 48.0 °F 56% 30.08 in 10.0 mi Calm Calm - N/A   Clear
9:53 PM 57.0 °F 51.1 °F 81% 30.09 in 10.0 mi South 3.5 mph - N/A   Clear
10:53 PM 60.1 °F 50.0 °F 69% 30.10 in 10.0 mi SSE 3.5 mph - N/A   Clear
11:53 PM 57.0 °F 52.0 °F 83% 30.10 in 10.0 mi SSE 3.5 mph - N/A   Clear